DEKBS EDFM-EDFM

Flight info

Callsign DEKBS
Flight time 0h 5m
Altitude
Route
Aircraft C172

Departure

Time 2026-04-27 15:06
Airport Mannheim-City Airport (EDFM)

Arrival

Time 2026-04-27 15:11
Airport Mannheim-City Airport (EDFM)
Time Latitude Longitude Altitude Speed Heading
2026-04-27 15:03 49.47333 8.51990 310 ft 0 kts 273°
2026-04-27 15:04 49.47333 8.51980 310 ft 10 kts 266°
2026-04-27 15:05 49.47351 8.51563 316 ft 61 kts 272°
2026-04-27 15:05 49.47351 8.50829 442 ft 72 kts 270°
2026-04-27 15:05 49.47135 8.50157 564 ft 91 kts 190°
2026-04-27 15:05 49.46543 8.50146 872 ft 76 kts 183°
2026-04-27 15:06 49.46048 8.50510 963 ft 93 kts 126°
2026-04-27 15:06 49.45685 8.51339 1166 ft 92 kts 117°
2026-04-27 15:06 49.45404 8.52210 1355 ft 94 kts 109°
2026-04-27 15:06 49.45379 8.53151 1385 ft 98 kts 45°
2026-04-27 15:07 49.45955 8.53430 1188 ft 84 kts
2026-04-27 15:07 49.46442 8.53515 1086 ft 66 kts
2026-04-27 15:07 49.46888 8.53521 846 ft 71 kts 346°
2026-04-27 15:07 49.47200 8.53039 602 ft 70 kts 284°
2026-04-27 15:08 49.47234 8.52326 408 ft 60 kts 278°
2026-04-27 15:08 49.47258 8.51694 311 ft 56 kts 276°
2026-04-27 15:08 49.47273 8.51143 309 ft 64 kts 274°
2026-04-27 15:08 49.47293 8.50438 501 ft 65 kts 266°
2026-04-27 15:09 49.46997 8.49953 599 ft 83 kts 191°
2026-04-27 15:09 49.46456 8.49915 772 ft 83 kts 172°
2026-04-27 15:09 49.46048 8.50615 754 ft 100 kts 115°
2026-04-27 15:09 49.45772 8.51592 869 ft 97 kts 105°
2026-04-27 15:10 49.45661 8.52513 1093 ft 83 kts 80°
2026-04-27 15:10 49.46046 8.53113 1153 ft 88 kts 18°
2026-04-27 15:10 49.46555 8.53249 1094 ft 59 kts
2026-04-27 15:10 49.47024 8.53232 715 ft 60 kts 344°
2026-04-27 15:11 49.47179 8.52617 491 ft 68 kts 291°
2026-04-27 15:11 49.47247 8.51977 350 ft 58 kts 277°
2026-04-27 15:11 49.47271 8.51423 309 ft 45 kts 279°
2026-04-27 15:11 49.47275 8.50896 345 ft 64 kts 260°
2026-04-27 15:12 49.47091 8.50196 535 ft 75 kts 193°
2026-04-27 15:12 49.46504 8.50072 588 ft 98 kts 170°
2026-04-27 15:12 49.46005 8.50832 656 ft 108 kts 123°
2026-04-27 15:12 49.45598 8.51793 784 ft 108 kts 117°
2026-04-27 15:13 49.45530 8.52649 1086 ft 79 kts 44°
2026-04-27 15:13 49.45996 8.53071 1199 ft 74 kts 15°
2026-04-27 15:13 49.46450 8.53199 1149 ft 60 kts 360°
2026-04-27 15:13 49.46864 8.53088 904 ft 62 kts 340°
2026-04-27 15:14 49.47198 8.52777 708 ft 62 kts 303°
2026-04-27 15:14 49.47250 8.52322 514 ft 68 kts 272°
2026-04-27 15:14 49.47251 8.51884 364 ft 65 kts 276°
2026-04-27 15:14 49.47275 8.51295 309 ft 46 kts 265°
2026-04-27 15:15 49.47300 8.50688 489 ft 53 kts 272°
2026-04-27 15:15 49.47039 8.50190 536 ft 86 kts 186°
2026-04-27 15:15 49.46462 8.50173 827 ft 77 kts 159°
2026-04-27 15:15 49.46016 8.50893 755 ft 109 kts 121°
2026-04-27 15:16 49.45721 8.51962 807 ft 115 kts 111°
2026-04-27 15:16 49.45379 8.52989 929 ft 114 kts 115°
2026-04-27 15:16 49.45240 8.54118 939 ft 114 kts 50°
2026-04-27 15:16 49.45959 8.54503 1025 ft 104 kts 359°
2026-04-27 15:17 49.46702 8.54326 967 ft 110 kts 347°
2026-04-27 15:17 49.47249 8.53812 762 ft 94 kts 290°
2026-04-27 15:17 49.47294 8.53000 628 ft 66 kts 273°
2026-04-27 15:17 49.47305 8.52343 433 ft 58 kts 276°
2026-04-27 15:18 49.47343 8.51788 310 ft 45 kts 273°
2026-04-27 15:18 49.47362 8.51156 361 ft 70 kts 270°
2026-04-27 15:18 49.47292 8.50493 545 ft 63 kts 253°
2026-04-27 15:18 49.46945 8.49958 573 ft 72 kts 213°
2026-04-27 15:19 49.46462 8.49887 541 ft 81 kts 142°
2026-04-27 15:19 49.46163 8.50690 522 ft 94 kts 114°
2026-04-27 15:19 49.45999 8.51641 666 ft 92 kts 92°
2026-04-27 15:19 49.46035 8.52597 690 ft 92 kts 78°
2026-04-27 15:20 49.46238 8.53536 871 ft 90 kts 43°
2026-04-27 15:20 49.46867 8.53689 850 ft 94 kts 348°
2026-04-27 15:20 49.47197 8.53250 800 ft 68 kts 276°
2026-04-27 15:20 49.47227 8.52494 483 ft 71 kts 277°
2026-04-27 15:21 49.47257 8.51789 315 ft 58 kts 274°
2026-04-27 15:21 49.47275 8.51305 309 ft 50 kts 269°
2026-04-27 15:21 49.47290 8.50617 372 ft 75 kts 269°
2026-04-27 15:21 49.47200 8.49767 512 ft 87 kts 248°
2026-04-27 15:22 49.46709 8.49239 687 ft 96 kts 188°
2026-04-27 15:22 49.46363 8.49912 673 ft 108 kts 96°
2026-04-27 15:22 49.46293 8.51046 834 ft 105 kts 89°
2026-04-27 15:22 49.46298 8.52223 880 ft 107 kts 82°
2026-04-27 15:23 49.46266 8.53305 1109 ft 99 kts 101°
2026-04-27 15:23 49.46164 8.54187 1360 ft 76 kts 88°
2026-04-27 15:23 49.46560 8.54619 1380 ft 75 kts
2026-04-27 15:23 49.47006 8.54503 1303 ft 60 kts 336°
2026-04-27 15:24 49.47190 8.53926 1052 ft 74 kts 277°
2026-04-27 15:24 49.47205 8.53068 589 ft 76 kts 274°
2026-04-27 15:24 49.47232 8.52340 419 ft 63 kts 276°
2026-04-27 15:24 49.47261 8.51731 309 ft 42 kts 274°
2026-04-27 15:25 49.47266 8.51454 308 ft 14 kts 267°
2026-04-27 15:25 49.47224 8.51423 308 ft 3 kts 132°
2026-04-27 15:25 49.47216 8.51504 308 ft 15 kts 95°
2026-04-27 15:25 49.47210 8.51704 308 ft 20 kts 91°
2026-04-27 15:26 49.47202 8.51898 308 ft 17 kts 95°
2026-04-27 15:26 49.47197 8.52065 310 ft 11 kts 81°
2026-04-27 15:26 49.47263 8.52149 310 ft 19 kts
2026-04-27 15:26 49.47404 8.52161 312 ft 16 kts
2026-04-27 15:27 49.47490 8.52159 313 ft 4 kts 328°
2026-04-27 15:27 49.47516 8.52102 313 ft 0 kts 219°